カタログに戻る

THORAD DELTA 1 DEB

運用中LEO
NORAD 14880·DEBRIS·🇺🇸 United States

打ち上げ Nov 15, 1974 から Vandenberg Space Force Base

Loading…

次のパス (今後24時間)

TLE

最新Source: Space-Track

元期: Sep 14, 2026, 07:23 UTC

1 14880U 74089ET  26257.30783332 -.00000034  00000-0  42968-4 0  9991
2 14880 101.2236 183.1502 0152100 214.6497 298.9211 12.30550362 20360

AllMySatでTHORAD DELTA 1 DEBをリアルタイム追跡

Download on the App Store